Location: Del Amo
(33.8464°N, 118.2104°W)
Time: 06:47:55
(UTC+00:00)

Vanguard 1 Rocket - Pass Details

Date: 18 September 2024
Orbit: 650 x 4218 km, 34.3° (Epoch: 09 October)

Event Time Altitude Azimuth Distance (km) Brightness Sun altitude
Rises 16:09:01 0° 287° (WNW) 7,201 11.4 29.8°
Reaches altitude 10° 16:13:18 10° 285° (WNW) 6,523 11.3 30.7°
Maximum altitude 16:36:42 65° 211° (SSW) 4,470 11.4 35.1°
Drops below altitude 10° 17:00:21 10° 135° (SE) 6,550 12.9 39.4°
Sets 17:04:42 0° 132° (SE) 7,226 12.8 40.2°
